Location: Brunsen
(51.8651°N, 9.8610°E)
Time: 17:35:52
(UTC+00:00)

Genesis I - Pass Details

Date: 23 May 2024
Orbit: 432 x 466 km, 64.5° (Epoch: 24 June)

Event Time Altitude Azimuth Distance (km) Brightness Sun altitude
Exits shadow 02:05:25 12° 208° (SSW) 1,464 4.8 -8.7°
Maximum altitude 02:08:36 61° 128° (SE) 520 3.2 -8.4°
Drops below altitude 10° 02:12:07 10° 48° (NE) 1,605 7.4 -8.1°
Sets 02:14:16 0° 45° (NE) 2,491 9.2 -7.9°
